SCP
5 5 5 5 5 6 7 7 6 5 3 5 8 9 7 6 4 3 3 2 1 1 1 1 1 1 0 1 1 1 0 1 1 1 1 2 2 2
4 4 4 4 4 5 6 7 6 6 5 7 9 9 8 7 5 4 3 2 1 1 0 1 0 0 0 0 0 0 0 1 1 1 1 1 1 1
2 2 3 3 3 3 4 4 5 5 5 6 7 7 7 6 5 4 4 3 2 1 1 0 0 0 0 0 0 0 0 0 1 1 1 1 1 1
1 2 2 2 2 2 2 2 3 3 3 4 4 4 4 4 4 4 4 3 3 2 1 1 0 0 0 0 0 0 0 0 0 0 1 1 1 1
1 2 2 2 2 2 2 3 3 3 3 2 2 3 3 4 4 4 4 4 3 2 2 1 1 0 0 0 0 0 0 0 0 0 0 0 1 1
1 2 2 2 2 2 2 3 3 4 3 3 3 4 4 5 5 5 5 5 4 4 3 3 2 1 1 0 0 0 0 0 0 0 0 0 0 0
2 2 2 2 2 2 2 3 3 4 4 4 4 5 5 6 6 6 5 5 4 4 5 4 3 3 2 1 1 0 0 0 0 0 0 0 0 0
3 2 2 2 2 2 2 2 2 4 5 5 5 5 6 6 7 6 5 5 5 5 5 4 4 4 4 3 1 0 0 0 0 0 0 0 0 0
2 3 3 3 3 2 2 2 2 3 4 5 5 5 6 8 8 7 6 5 5 6 5 4 4 5 5 3 2 0 0 0 0 0 0 0 0 0
2 2 3 3 3 3 3 3 3 3 3 4 4 5 5 7 8 8 7 5 5 5 6 5 5 5 5 4 2 1 0 0 0 0 0 0 0 0
2 2 2 3 3 3 4 5 5 4 4 3 3 3 3 4 5 6 6 5 4 4 5 6 6 6 6 5 4 2 1 0 0 0 0 0 0 0
2 2 2 2 2 3 4 6 6 5 5 5 3 2 2 2 2 3 4 4 4 4 5 6 6 6 6 6 6 5 3 2 1 0 0 0 0 0
3 3 3 2 1 2 3 4 4 4 5 6 5 3 2 2 2 2 3 4 4 5 5 6 6 6 6 5 5 5 4 3 2 1 1 0 0 0
3 3 3 2 1 1 1 2 2 2 3 5 6 4 3 3 3 3 4 4 4 4 4 5 6 6 5 4 3 3 3 3 3 2 2 1 0 0
3 2 2 1 1 0 1 1 1 2 2 3 4 5 4 4 4 4 5 4 4 4 4 5 6 6 6 4 3 2 1 2 2 2 2 2 1 1
2 2 1 1 1 1 1 1 1 2 2 3 4 5 5 5 5 5 5 5 4 4 4 5 5 6 5 4 3 2 1 1 2 2 3 2 2 1
1 2 2 2 1 2 2 2 2 2 2 3 4 5 5 5 5 5 5 5 4 4 4 4 4 4 4 4 3 2 2 1 2 2 3 2 2 1
1 2 2 2 2 2 2 2 2 2 3 3 4 4 5 4 4 5 5 5 4 4 4 4 4 4 3 2 2 2 1 2 2 2 2 2 1 1
1 1 2 2 3 3 3 2 2 3 3 3 4 4 5 4 4 4 4 4 3 4 4 4 4 3 2 2 2 1 1 2 2 2 2 2 1 1
1 2 2 2 3 3 3 2 2 3 3 4 4 4 5 5 4 3 3 2 3 3 4 4 4 3 3 2 2 1 1 1 2 2 2 1 1 1
1 2 2 2 2 3 3 3 3 3 3 3 4 4 5 5 4 3 2 2 2 2 3 4 4 4 3 3 2 1 1 1 1 2 1 1 1 1
2 2 2 2 2 2 3 3 3 3 3 3 3 4 4 4 4 3 2 1 1 2 3 4 5 4 3 3 2 1 1 1 1 1 1 0 0 0
2 2 2 2 2 2 2 2 2 3 3 3 3 4 4 4 4 3 2 1 1 2 2 4 4 4 3 3 2 1 1 1 1 1 0 0 0 0
Wind_Speed
3 3 3 2 2 3 3 3 4 4 3 2 2 2 2 2 2 3 3 5 5 5 4 4 4 4 5 4 4 4 4 5 5 5 5 7 8 9
2 3 3 3 2 2 3 3 4 4 4 2 2 2 2 2 3 3 3 6 6 6 5 5 4 5 5 5 5 5 4 5 6 6 6 6 7 7
3 3 4 4 3 3 3 3 3 4 4 3 2 1 2 4 2 4 4 5 4 7 6 6 6 6 6 5 5 5 5 5 6 7 7 7 7 8
4 4 4 3 4 4 3 4 3 3 4 4 2 2 3 4 3 4 4 4 3 7 8 7 7 6 6 6 6 6 5 5 5 6 7 7 8 8
4 5 5 4 5 4 4 4 4 4 4 4 4 2 3 3 3 5 4 4 5 5 9 10 8 8 7 7 7 6 6 6 6 6 7 7 8 8
5 5 5 5 5 5 4 5 4 4 4 5 4 3 3 3 3 4 4 4 4 4 3 5 8 10 10 9 8 8 8 7 7 7 7 7 7 7
5 5 5 4 4 5 5 4 4 5 5 5 4 4 3 2 4 4 4 4 4 4 4 4 5 6 8 10 10 9 8 8 8 7 7 7 7 8
5 5 5 5 5 6 6 6 6 6 6 5 5 5 4 5 4 5 4 4 4 2 4 5 4 5 5 4 5 7 7 7 7 7 7 7 7 8
3 4 4 2 4 5 6 8 8 7 7 7 7 7 5 5 5 6 5 6 5 3 4 6 4 5 4 3 7 7 7 7 7 7 7 7 7 7
4 4 5 4 3 5 6 6 6 6 6 7 7 7 6 5 5 7 6 7 7 5 5 6 4 4 4 3 8 8 8 7 7 7 7 7 7 7
5 4 5 5 2 4 7 6 6 5 5 5 5 6 5 4 5 5 6 6 6 5 5 6 5 4 4 4 5 9 9 8 8 8 8 8 7 8
4 5 4 5 3 4 6 6 7 6 6 5 6 8 8 8 8 8 7 7 6 5 4 5 5 4 4 4 3 5 6 8 9 9 9 9 8 7
4 4 2 4 4 5 6 6 6 7 7 7 6 6 6 6 6 7 7 7 6 6 2 3 5 5 5 4 3 4 4 4 6 7 9 10 9 7
5 4 1 3 4 5 6 5 6 7 7 6 6 5 5 5 5 5 6 7 7 7 5 4 5 5 6 6 4 4 4 4 4 4 4 8 9 8
4 3 3 3 5 6 7 7 7 7 6 6 6 6 5 5 5 4 6 6 8 8 7 7 7 6 7 7 6 5 5 4 4 5 5 5 5 6
6 4 6 7 7 6 5 6 6 5 6 6 6 6 5 4 4 5 5 5 6 6 7 8 8 8 8 8 7 6 5 5 4 5 4 5 5 5
5 5 5 4 5 5 4 4 4 5 5 6 6 6 5 5 5 5 5 5 6 6 5 5 6 7 8 8 7 7 6 6 5 4 4 5 5 5
4 5 5 4 4 4 4 4 4 5 5 5 6 6 5 5 5 5 5 6 6 6 5 4 4 4 5 5 6 7 6 6 5 5 6 6 6 5
4 4 4 4 4 4 5 5 5 5 5 5 6 6 6 6 6 5 6 6 6 6 5 4 4 5 7 6 5 6 6 5 4 5 5 5 6 4
3 4 4 4 4 5 5 5 5 5 5 6 6 6 6 6 6 6 6 6 6 6 6 5 5 5 7 6 4 3 5 6 5 5 4 4 3 0
3 3 4 5 5 5 5 5 5 5 5 6 6 6 6 6 6 6 6 5 6 7 6 5 3 3 4 3 4 4 3 3 2 3 4 4 4 4
4 4 4 4 5 5 5 5 6 5 5 5 6 5 5 6 6 7 6 5 5 5 6 4 2 2 3 4 4 4 3 2 2 3 2 4 4 4
5 5 4 5 5 5 5 6 7 6 5 5 5 5 6 5 6 6 6 5 5 5 5 4 3 3 4 4 5 4 4 4 3 3 3 3 5 4
Wind_Direction
243 234 255 259 260 271 274 279 286 285 279 234 232 218 230 220 169 220 215 167 196 211 213 216 220 217 211 210 213 218 222 226 225 226 223 217 214 212
265 285 280 273 271 261 264 271 274 277 285 294 270 247 259 240 186 238 230 172 195 207 208 211 217 219 215 213 211 213 214 219 217 219 221 217 214 212
245 241 250 275 278 265 256 264 267 271 272 279 276 270 257 269 238 244 233 230 197 188 199 205 211 214 215 216 215 211 209 215 218 217 218 215 216 216
244 251 254 249 249 266 269 266 268 271 267 274 278 251 239 248 246 254 251 244 238 172 190 202 208 211 211 213 216 215 214 217 221 222 223 222 221 221
244 247 252 257 260 261 261 265 263 256 259 263 265 265 248 245 248 250 253 263 256 184 190 198 204 210 213 213 215 215 216 217 219 220 221 223 223 222
246 249 253 256 259 263 254 255 261 262 254 257 259 251 248 239 252 259 251 235 253 248 226 216 202 208 211 210 213 215 215 215 217 218 219 218 221 224
247 250 250 255 281 280 281 270 257 257 256 257 260 255 251 255 259 263 264 255 242 258 255 237 214 218 208 206 210 217 218 214 214 216 218 217 217 221
259 259 246 226 232 236 261 276 281 268 269 269 264 264 261 259 267 271 269 264 259 232 262 262 251 244 232 217 171 188 208 218 218 216 217 219 220 220
263 268 272 258 245 250 231 229 238 243 253 268 272 274 273 266 268 263 262 270 276 278 264 265 254 251 245 173 157 182 201 211 214 213 213 216 219 221
254 260 268 272 277 278 266 254 249 236 232 241 261 271 277 283 263 264 267 257 255 247 241 263 258 256 251 198 160 181 196 203 208 211 213 215 217 217
249 254 262 261 266 275 264 263 263 254 220 222 251 267 283 273 271 264 255 254 255 240 220 250 261 265 258 232 176 182 195 199 205 210 212 212 215 216
240 236 230 254 253 249 258 263 265 270 271 239 230 238 245 238 230 246 255 257 261 257 216 238 256 258 258 238 213 195 199 196 201 205 206 207 210 228
261 253 235 179 219 236 255 268 275 282 273 263 252 245 240 238 228 228 244 259 262 260 250 233 262 255 258 261 251 235 227 217 204 202 201 202 206 230
275 275 260 168 215 237 247 268 275 271 267 266 263 261 259 256 249 244 239 247 255 264 274 264 261 264 264 258 250 241 233 227 231 229 210 185 199 210
276 310 301 235 232 234 234 244 250 256 265 266 267 266 267 269 268 255 245 241 245 248 245 243 253 255 258 262 262 251 249 241 231 232 226 217 214 202
254 243 224 229 242 261 247 232 243 259 269 269 270 271 272 264 259 265 264 252 247 244 234 234 242 253 254 256 260 255 247 245 238 239 241 236 227 224
287 269 263 253 249 252 255 256 258 255 254 265 269 270 268 265 263 264 264 262 257 258 246 229 229 235 250 259 257 251 247 244 238 230 236 244 238 236
271 266 268 268 270 272 274 271 265 264 264 264 265 267 269 268 267 262 260 259 263 264 264 257 246 246 247 234 240 254 251 247 241 223 234 241 240 233
250 266 273 275 275 275 275 275 274 272 272 270 267 265 266 268 268 266 260 258 261 265 264 252 244 248 253 255 226 226 252 251 245 236 231 237 244 237
261 275 281 282 282 284 285 285 284 280 271 268 268 268 265 264 265 266 263 265 268 267 265 255 245 249 257 266 270 245 227 245 247 247 244 243 251 236
290 289 290 292 293 294 293 291 288 285 284 280 276 274 270 266 265 267 267 258 261 265 266 267 265 259 270 269 260 252 224 211 251 259 261 257 247 237
311 307 310 310 307 304 300 297 292 288 286 279 281 280 277 274 271 270 272 272 266 272 279 284 277 248 249 247 256 263 257 230 194 183 244 262 261 254
323 321 319 318 316 312 307 302 299 298 296 292 289 284 281 278 276 274 270 269 273 274 276 277 270 258 256 255 257 256 248 243 234 215 216 198 196 203